Beaufort, NC

2:21 PM EDT on July 17, 2019 (GMT -0400)
Smith

Weather History for KMRH - April, 2019

Change the Weather History Date:

Tuesday, April 16, 2019

  Actual Average Record
Temperature  
Mean Temperature 56 °F -  
Max Temperature 64 °F 71 °F 82 °F (1967)
Min Temperature 48 °F 52 °F 35 °F (1950)
Degree Days  
Heating Degree Days 9    
Growing Degree Days 6 (Base 50)    
Moisture  
Dew Point 40 °F    
Average Humidity 52    
Maximum Humidity 70    
Minimum Humidity 38    
Precipitation  
Precipitation 0.00 in - - ()
Sea Level Pressure  
Sea Level Pressure 30.20 in    
Wind  
Wind Speed 11 mph (North)    
Max Wind Speed 17 mph    
Max Gust Speed 20 mph    
Visibility 10 miles    
Events      
Averages and records for this station are not official NWS values.
T = Trace of Precipitation, MM = Missing Value Source: NWS Daily Summary

Daily Weather History Graph

Daily Weather History Graph

Search for Another Location

Airport or City:

Astronomy

Apr. 16, 2019 Rise Set
Actual Time 6:33 AM EDT 7:39 PM EDT
Civil Twilight 6:08 AM EDT 8:05 PM EDT
Nautical Twilight 5:37 AM EDT 8:36 PM EDT
Astronomical Twilight 5:05 AM EDT 9:08 PM EDT
Moon 4:41 PM EDT (4/16) 5:03 AM EDT (4/16)
Length of Visible Light 13h 57m
Length of Day
13h 05m
Waxing Gibbous, 89% of the Moon is Illuminated
Apr 16
Waxing Gibbous
Apr 19
Full
Apr 26
Last Quarter
May 4
New
May 11
First Quarter

Hourly Weather History & Observations

Time (EDT) Temp. Dew Point Humidity Pressure Visibility Wind Dir Wind Speed Gust Speed Precip Events Conditions
12:58 AM 57.0 °F 37.9 °F 49% 30.11 in 10.0 mi NNW 17.3 mph - N/A   Clear
1:58 AM 54.0 °F 37.0 °F 53% 30.11 in 10.0 mi North 13.8 mph - N/A   Clear
2:58 AM 53.1 °F 35.1 °F 50% 30.13 in 10.0 mi North 10.4 mph - N/A   Clear
3:58 AM 50.0 °F 36.0 °F 59% 30.13 in 10.0 mi North 9.2 mph - N/A   Clear
4:58 AM 50.0 °F 36.0 °F 59% 30.15 in 10.0 mi North 10.4 mph - N/A   Clear
5:58 AM 48.9 °F 35.1 °F 59% 30.18 in 10.0 mi North 8.1 mph - N/A   Clear
6:58 AM 50.0 °F 37.0 °F 61% 30.22 in 10.0 mi North 9.2 mph - N/A   Clear
7:58 AM 53.1 °F 39.0 °F 59% 30.24 in 10.0 mi North 8.1 mph - N/A   Clear
8:58 AM 57.0 °F 39.0 °F 51% 30.26 in 10.0 mi NNE 8.1 mph - N/A   Clear
9:58 AM 59.0 °F 36.0 °F 42% 30.27 in 10.0 mi NNE 15.0 mph 19.6 mph N/A   Clear
10:58 AM 61.0 °F 35.1 °F 38% 30.28 in 10.0 mi ENE 10.4 mph - N/A   Clear
11:58 AM 61.0 °F 35.1 °F 38% 30.27 in 10.0 mi ENE 6.9 mph - N/A   Clear
12:58 PM 63.0 °F 39.0 °F 41% 30.26 in 10.0 mi Variable 4.6 mph - N/A   Clear
1:58 PM 63.0 °F 41.0 °F 45% 30.25 in 10.0 mi SE 9.2 mph - N/A   Clear
2:58 PM 64.0 °F 42.1 °F 45% 30.25 in 10.0 mi ESE 8.1 mph - N/A   Clear
3:58 PM 63.0 °F 43.0 °F 48% 30.22 in 10.0 mi SSE 9.2 mph - N/A   Clear
4:58 PM 62.1 °F 39.9 °F 44% 30.21 in 10.0 mi SSW 11.5 mph - N/A   Clear
5:58 PM 61.0 °F 43.0 °F 52% 30.20 in 10.0 mi South 10.4 mph - N/A   Clear
6:58 PM 61.0 °F 44.1 °F 54% 30.20 in 10.0 mi South 9.2 mph - N/A   Clear
7:58 PM 59.0 °F 43.0 °F 55% 30.20 in 10.0 mi SW 12.7 mph - N/A   Clear
8:58 PM 59.0 °F 44.1 °F 58% 30.19 in 10.0 mi SW 11.5 mph - N/A   Clear
9:58 PM 59.0 °F 44.1 °F 58% 30.19 in 10.0 mi SW 8.1 mph - N/A   Clear
10:58 PM 60.1 °F 46.9 °F 62% 30.18 in 10.0 mi SW 12.7 mph - N/A   Clear
11:58 PM 61.0 °F 51.1 °F 70% 30.18 in 10.0 mi SW 11.5 mph - N/A   Clear